www.pogodaiklimat.ru

Погода и климат >> Архив погоды >> Монголия >> Богд


ПОГОДА в Богде

  • Прогноз погоды в Богде
  • Монитор погоды в Богде

АРХИВ ПОГОДЫ в Богде

Время (UTC), дата Ветер
(напр.,м/с)
 
Видим.   Явления Облачность Т
(С)
Тd
(С)
f
(%)
Тe
(С)
Тes
(С)
Комфортность P
(гПа)
Po
(гПа)
Тmin
(С)
Tmax
(С)
R
(мм)
R24
(мм)
S
(см)
18 18.08 З 2 н/о 9/6 1000 м
[Cu Sc Ac As]
+19.9 +9.8 52 +22 +22 комфорт 1006.7 843.6
21 18.08 ЮВ 1 н/о слаб. дождь 10/8 600 м
[Sc As op]
+16.0 +13.3 84 +17 +17 1009.6 844.0
00 19.08 Ю 2 20 км осадки на расстоянии 9/6 600 м
[Sc Ac As]
+16.8 +14.8 88 +17 +17 1008.0 843.1 +16.0 0.6
03 19.08 З 6 50 км 9/5 1000 м
[Cu Sc Ac As]
+20.7 +9.6 49 +22 +23 комфорт 1006.0 843.4
06 19.08 З 4 50 км 9/5 1000 м
[Cu Sc Ac As]
+22.3 +9.8 45 +24 +26 комфорт 1004.4 842.9
09 19.08 ЮЗ 6 50 км 8/3 1000 м
[Cu med, cong Cs]
+24.7 +8.2 35 +25 +27 комфорт 1002.0 842.0
12 19.08 СЗ 9
{17}
50 км 5/3 1000 м
[Sc diur, vesp Ac cuf]
+22.2 +2.3 27 +22 +22 комфорт 1004.1 842.6 +25.1
15 19.08 СЗ 5 50 км 5/3 1000 м
[Sc Ac und]
+20.8 +1.6 28 +21 +21 комфорт 1007.4 844.6
18 19.08 ЮВ 2 н/о осадки на расстоянии 8/4 600 м
[Sc Ac As]
+15.1 +8.6 65 +15 +15 1013.2 846.5
21 19.08 СВ 3 50 км 5/3 1000 м
[Sc Ac trans]
+12.3 +4.0 57 +11 +11 1015.9 847.3
00 20.08 СВ 4 50 км 4/3 1000 м
[Sc Ac trans]
+13.7 +4.0 52 +12 +13 1016.7 848.7 +11.8 0.3
03 20.08 С 11 50 км 5/3 1000 м
[Sc Ac trans]
+18.4 +1.0 31 +17 +17 1014.6 849.4
06 20.08 СВ 4 50 км 4/3 1000 м
[Sc Ci]
+19.5 +1.9 31 +20 +27 1014.7 850.1
09 20.08 СЗ 2 50 км 4/3 1000 м
[Sc Ci]
+20.9 +1.2 27 +22 +26 комфорт 1012.6 849.0
12 20.08 В 7 50 км 5/3 1000 м
[Sc Ac und Ci]
+18.2 +3.3 37 +18 +18 1014.9 849.6 +21.5
15 20.08 В 4 50 км 3/0 2000 м
[Ac trans Ci]
+15.1 +4.5 49 +14 +14 1018.2 850.7
18 20.08 ЮВ 4 н/о 8/0 2000 м
[Ac und Cs]
+14.4 +4.9 53 +13 +13 1018.6 850.7
21 20.08 ЮЗ 3 н/о 8/0
[Cs]
+12.5 +5.4 62 +11 +11 1019.4 850.3
00 21.08 Ю 2 50 км 8/0 2000 м
[Ac und Cs]
+13.1 +5.8 61 +13 +14 1018.8 850.1 +11.5
03 21.08 В 2 50 км 8/0 2000 м
[Ac As Cs]
+20.4 +4.0 34 +22 +30 комфорт 1013.2 849.3
06 21.08 ЮЗ 4 50 км 6/0 2000 м
[Ac und Ci]
+24.5 +2.0 23 +23 +31 комфорт 1009.3 848.1
09 21.08 ЮЗ 6 50 км 5/3 1000 м
[Sc Ac lent Ci]
+25.6 -0.5 18 +24 +25 комфорт 1007.9 847.4
12 21.08 ЮЗ 3 50 км 5/3 1000 м
[Sc Ci]
+22.9 +2.4 26 +22 +22 комфорт 1009.4 847.4 +25.9
15 21.08 Ю 3 50 км ясно +21.1 +2.9 30 +21 +21 комфорт 1011.0 847.8
18 21.08 ЮЗ 6 50 км 5/3 1000 м
[Sc Ac trans]
+20.3 +3.5 33 +21 +21 комфорт 1011.1 847.5
21 21.08 ЮЗ 6 н/о 8/4 1000 м
[Sc Ac trans Ci]
+20.8 +1.6 28 +21 +21 комфорт 1010.8 847.5
00 22.08 ЮЗ 6 50 км 8/3 1000 м
[Sc Ac und Cs]
+21.5 +0.6 25 +21 +21 комфорт 1011.1 848.1 +18.9
03 22.08 ЮЗ 9 50 км 8/5 1000 м
[Sc Ac lent]
+23.9 +3.2 26 +23 +24 комфорт 1009.9 848.3
06 22.08 ЮЗ 7 50 км 8/4 1000 м
[Cu Sc Ac lent Ci]
+26.1 +2.7 22 +25 +26 комфорт 1007.8 847.6
09 22.08 ЮЗ 6 50 км 8/3 1000 м
[Sc Ac trans Ci fib]
+26.2 +2.8 22 +25 +26 комфорт 1006.3 846.4
12 22.08 ЮЗ 3 50 км 8/4 1000 м
[Sc Ac und Ci]
+24.5 +3.8 26 +24 +24 комфорт 1007.4 846.5 +27.6
15 22.08 ЮЗ 2 н/о 8/5 1000 м
[Cu Sc Ac und]
+23.0 +5.9 33 +23 +23 комфорт 1009.4 847.4
18 22.08 СВ 2 н/о 6/3 1000 м
[Sc Ac und]
+18.3 +8.0 51 +19 +19 1012.5 847.6
21 22.08 СЗ 2 н/о 9/6 1000 м
[Cu Sc Ac As]
+19.2 +9.9 55 +21 +21 комфорт 1011.2 847.0
00 23.08 Ю 1 20 км осадки на расстоянии 9/6 600 м
[Sc Ac As]
+17.8 +10.2 61 +19 +19 1013.1 847.9 +16.2 0.1
03 23.08 ЮЗ 6 50 км 3/3 1000 м
[Cu hum]
+22.1 +7.5 39 +23 +26 комфорт 1009.7 847.2
06 23.08 ЮЗ 6 50 км 6/5 1000 м
[Cu med, cong Ci]
+24.8 +7.9 34 +25 +28 комфорт 1006.4 845.8
09 23.08 З 4 50 км 8/5 1000 м
[Cu med, cong Ac As]
+24.4 +7.1 33 +25 +26 комфорт 1005.7 845.0
12 23.08 Ю 2 50 км 6/5 1000 м
[Cu Sc Ci]
+20.8 +10.6 52 +23 +23 комфорт 1008.3 845.4 +25.8
15 23.08 З 6 н/о зарница 6/3 1000 м
[Cb cap Ac As]
+21.2 +5.5 36 +22 +22 комфорт 1008.3 845.6
18 23.08 В 3 50 км 4/3 1000 м
[Sc Ci]
+18.4 +5.6 43 +19 +19 1009.1 844.8
21 23.08 З 5 50 км 4/3 1000 м
[Sc Ci]
+19.5 +6.2 42 +20 +20 1008.3 844.7
00 24.08 З 8 50 км 5/3 1000 м
[Sc Ac lent]
+22.2 +9.0 43 +24 +24 комфорт 1007.2 845.2 +17.4
03 24.08 З 7 50 км 4/3 1000 м
[Cu hum Ac trans]
+24.5 +9.6 39 +25 +27 комфорт 1006.5 845.7
06 24.08 З 6
{13}
50 км 5/4 1000 м
[Cu med, cong Ci fib]
+27.1 +7.5 29 +27 +30 жарко 1003.8 844.7
09 24.08 З 6 50 км 6/5 1000 м
[Cu Sc Ci]
+28.5 +1.1 17 +26 +27 жарко 1001.2 843.2
12 24.08 З 2 50 км 5/3 1000 м
[Sc diur, vesp Ac cuf]
+25.6 +4.1 25 +25 +25 комфорт 1002.9 843.2 +29.1
15 24.08 Ю 2 50 км 3/0 2000 м
[Ac trans Ci fib]
+19.6 -2.1 23 +20 +20 1007.7 844.3
18 24.08 ЮЗ 2 50 км ясно +17.5 -2.2 26 +18 +18 1009.7 844.9
21 24.08 СВ 2 50 км ясно +13.9 -2.5 32 +14 +14 1013.3 846.0
00 25.08 штиль 0 50 км 6/0 2000 м
[Ac und Ci]
+15.5 +1.2 38 +16 +17 1014.9 848.2 +11.5
03 25.08 СВ 2 50 км 6/3 1000 м
[Sc Ac und Ci]
+19.1 +3.7 36 +20 +26 1013.3 848.7
06 25.08 СВ 3 50 км 8/4 1000 м
[Sc Ac As Ci]
+20.5 +3.2 32 +21 +26 комфорт 1011.5 847.9
09 25.08 СЗ 4 50 км 9/6 1000 м
[Cu Sc As trans]
+19.6 +2.9 33 +20 +21 1012.4 848.2
12 25.08 З 2 50 км 5/3 1000 м
[Sc Ac trans]
+18.7 +2.9 35 +19 +19 1012.4 847.7 +21.2
15 25.08 Ю 1 50 км ясно +12.5 +2.4 50 +13 +13 1017.3 848.6

 

Местоположение метеостанции Богд (Монголия): широта 44.65 долгота 102.16 высота над уровнем моря 1646 м.

В архиве по умолчанию представлена погода в Богде за последнюю неделю. Архивные данные за месяц целиком и за предыдущие месяцы, начиная с января 2011 года, Вы можете получить, выбрав интересующий диапазон дат из раскрывающегося списка и нажав кнопку "Ввод!".


*Определитесь, кто Вы:
робот инопланетянин человек

Внимание! Время в таблицах - всемирное. Для получения местного времени необходимо прибавить поправку, которая равна 8 ч.

Смотрите также архив погоды в соседних городах и на ближайших метеорологических станциях:

Погода в Сайкхан-Ову (Монголия) (163 км)
Погода в Арвайхээре (Монголия) (187 км)
Погода в Баянхонгоре (Монголия) (201 км)
Погода в Даланзадгаде (Монголия) (216 км)
Погода в Шинэ Уса (Монголия) (250 км)
Погода в Цогт-Овоо (Монголия) (251 км)
Погода в Хужирте (Монголия) (255 км)
Погода в Амарбуйантайане (Монголия) (274 км)
Погода в Галууте (Монголия) (277 км)
Погода в Бат Олжий Вунд (Монголия) (288 км)

Пояснения к столбцам:

Ветер - указаны скорость ветра в м/с - средняя за 10 мин, порывы в срок и между сроками (в фигурных скобках) и направление, откуда дует ветер: С - северный, СВ - северо-восточный, В - восточный, ЮВ - юго-восточный, Ю - южный, ЮЗ - юго-западный, З - западный, СЗ - северо-западный.
Видимость - горизонтальная дальность видимости в метрах или километрах. При видимости от 1 до 10 км при отсутствии осадков обычно наблюдается дымка, при ухудшении видимости до 1 км и менее - туман. В сухую погоду видимость может ухудшаться дымом, пылью или мглою.
Явления - указаны атмосферные явления, наблюдавшиеся в срок или в последний час перед сроком; фигурными скобками обозначены явления, наблюдавшиеся между сроками (за 1-3 часа до срока); квадратными скобками обозначены град или гололедные отложения с указанием их диаметра в мм.
Облачность - указаны через наклонную черту общая и нижняя облачность в баллах и высота нижней границы облаков в метрах; квадратными скобками обозначены формы облаков: Ci - перистые, Cs - перисто-слоистые, Cc - перисто-кучевые, Ac - высококучевые, As - высокослоистые, Sc - слоисто-кучевые, Ns - слоисто-дождевые, Cu - кучевые, Cb - кучево-дождевые. Подробнее классификацию облаков см. в Атласе облаков (PDF).
T - Температура воздуха - температура, измеренная на высоте 2 м над землей.
Td - Температура точки росы - температура, при понижении до которой содержащийся в воздухе водяной пар достигнет насыщения.
f - Относительная влажность воздуха - влажноcть воздуха, измеренная на высоте 2 м над землей.
Te - Эффективная температура - температура, которую ощущает одетый по сезону человек в тени. Характеристика душности погоды. При расчете учитывается влияние влажности воздуха и скорости ветра на теплоощущения человека.
Tes - Эффективная температура на солнце - температура, которую ощущает человек, с поправкой на солнечный нагрев. Характеристика знойности погоды. Зависит от высоты солнца над горизонтом, облачности и скорости ветра. Ночью, в пасмурную погоду, а также при ветре 12 м/с и более поправка равна нулю.
P - Атмосферное давление - приведенное к уровню моря атмосферное давление.
Po - Атмосферное давление - измеренное на уровне метеостанции атмосферное давление.
Tmin - Минимальная температура - минимум температуры воздуха на высоте 2 м над землей.
Tmax - Максимальная температура - максимум температуры воздуха на высоте 2 м над землей.
R - Количество осадков - Количество выпавших осадков за период времени, мм. При наведении курсора мыши на число - период времени, за который выпало указанное количество осадков.
R24 - Количество осадков - Количество выпавших осадков за 24 часа, мм.
S - Снежный покров - Высота снежного покрова, см. При наведении курсора мыши на число - состояние снежного покрова и степень покрытия местности в баллах.